Weather History for Phnom Penh, Cambodia

Change the Weather History Date:

Tuesday, March 25, 2014

  Actual Average Record
Temperature  
Mean Temperature 86 °F -  
Max Temperature 95 °F 92 °F 100 °F (2013)
Min Temperature 77 °F 78 °F 77 °F (2003)
Cooling Degree Days 21    
Growing Degree Days 36 (Base 50)    
Moisture  
Dew Point 67 °F    
Average Humidity 53    
Maximum Humidity 74    
Minimum Humidity 34    
Precipitation  
Precipitation 0.00 in - - ()
Sea Level Pressure  
Sea Level Pressure 29.80 in    
Wind  
Wind Speed 7 mph ()    
Max Wind Speed 13 mph    
Max Gust Speed -    
Visibility 5.9 miles    
Events      
Averages and records for this station are not official NWS values.
T = Trace of Precipitation, MM = Missing Value Source: Averaged Metar Reports

Daily Weather History Graph

Daily Weather History Graph

Search for Another Location

Airport:

Trip Planner

Search our weather history database for the weather conditions in past years. The results will help you decide how hot, cold, wet, or windy it might be!

Date:

Astronomy

Mar. 25, 2014 Rise Set
Actual Time 6:01 AM ICT 6:11 PM ICT
Civil Twilight 5:40 AM ICT 6:32 PM ICT
Nautical Twilight 5:16 AM ICT 6:57 PM ICT
Astronomical Twilight 4:51 AM ICT 7:21 PM ICT
Moon 1:02 AM ICT (3/25) 12:59 PM ICT (3/25)
Length of Visible Light 12h 51m
Length of Day
12h 09m
Last Quarter, 37% of the Moon is Illuminated
Mar 25
Last Quarter
Mar 31
New
Apr 7
First Quarter
Apr 15
Full
Apr 22
Last Quarter

Hourly Weather History & Observations

Time (ICT) Temp. Heat Index Dew Point Humidity Pressure Visibility Wind Dir Wind Speed Gust Speed Precip Events Conditions
12:00 AM 82.4 °F 86.3 °F 69.8 °F 66% 29.83 in 5.6 mi SSE 12.7 mph - N/A   Unknown
12:30 AM 80.6 °F 83.9 °F 69.8 °F 70% 29.83 in 5.6 mi South 9.2 mph - N/A   Unknown
1:00 AM 80.6 °F 83.9 °F 69.8 °F 70% 29.83 in 5.6 mi South 10.4 mph - N/A   Unknown
6:00 AM 77.0 °F - 68.0 °F 74% 29.83 in 5.6 mi SW 5.8 mph - N/A   Unknown
6:30 AM 78.8 °F - 69.8 °F 74% 29.83 in 5.6 mi SW 5.8 mph - N/A   Unknown
7:00 AM 78.8 °F - 69.8 °F 74% 29.86 in 5.6 mi SSW 5.8 mph - N/A   Unknown
7:30 AM 80.6 °F 83.9 °F 69.8 °F 70% 29.86 in 5.6 mi SW 6.9 mph - N/A   Unknown
8:00 AM 82.4 °F 86.3 °F 69.8 °F 66% 29.86 in - SSW 6.9 mph - N/A   Clear
8:30 AM 84.2 °F 88.4 °F 69.8 °F 62% 29.89 in 6.2 mi SSW 6.9 mph - N/A   Partly Cloudy
9:00 AM 86.0 °F 90.4 °F 69.8 °F 58% 29.89 in 6.2 mi South 8.1 mph - N/A   Partly Cloudy
9:30 AM 86.0 °F 89.4 °F 68.0 °F 55% 29.89 in 6.2 mi South 8.1 mph - N/A   Partly Cloudy
10:00 AM 87.8 °F 92.6 °F 69.8 °F 55% 29.89 in 6.2 mi South 5.8 mph - N/A   Partly Cloudy
10:30 AM 87.8 °F 92.6 °F 69.8 °F 55% 29.86 in 6.2 mi SSE 6.9 mph - N/A   Partly Cloudy
11:00 AM 87.8 °F 92.6 °F 69.8 °F 55% 29.86 in 6.2 mi SE 6.9 mph - N/A   Scattered Clouds
11:30 AM 89.6 °F 93.4 °F 68.0 °F 49% 29.83 in 6.2 mi SSE 6.9 mph - N/A   Scattered Clouds
12:00 PM 91.4 °F 95.4 °F 68.0 °F 46% 29.83 in 6.2 mi South 5.8 mph - N/A   Scattered Clouds
12:30 PM 91.4 °F 94.0 °F 66.2 °F 43% 29.80 in 6.2 mi SSE 6.9 mph - N/A   Scattered Clouds
1:00 PM 91.4 °F 94.0 °F 66.2 °F 43% 29.77 in 6.2 mi SSW 5.8 mph - N/A   Scattered Clouds
1:30 PM 93.2 °F 96.2 °F 66.2 °F 41% 29.77 in 6.2 mi WSW 5.8 mph - N/A   Scattered Clouds
2:00 PM 95.0 °F 97.0 °F 64.4 °F 36% 29.74 in 6.2 mi SE 5.8 mph - N/A   Scattered Clouds
4:00 PM 95.0 °F 97.0 °F 64.4 °F 36% 29.68 in 6.2 mi SE 2.3 mph - N/A   Partly Cloudy
5:00 PM 95.0 °F 96.0 °F 62.6 °F 34% 29.71 in 5.6 mi East 6.9 mph - N/A   Unknown
5:30 PM 95.0 °F 96.0 °F 62.6 °F 34% 29.71 in 5.6 mi ENE 4.6 mph - N/A   Unknown
6:00 PM 93.2 °F 94.1 °F 62.6 °F 36% 29.71 in 5.6 mi ENE 4.6 mph - N/A   Unknown
6:30 PM 91.4 °F 93.2 °F 64.4 °F 41% 29.71 in 5.6 mi SE 3.5 mph - N/A   Unknown
7:00 PM 91.4 °F 94.0 °F 66.2 °F 43% 29.71 in 5.6 mi SE 3.5 mph - N/A   Unknown
7:30 PM 89.6 °F 92.2 °F 66.2 °F 46% 29.74 in 5.6 mi South 3.5 mph - N/A   Unknown
8:00 PM 89.6 °F 93.4 °F 68.0 °F 49% 29.74 in 5.6 mi SSE 5.8 mph - N/A   Unknown
8:30 PM 87.8 °F 91.4 °F 68.0 °F 52% 29.74 in 5.6 mi South 4.6 mph - N/A   Unknown
9:00 PM 87.8 °F 91.4 °F 68.0 °F 52% 29.77 in 5.6 mi SSW 4.6 mph - N/A   Unknown
9:30 PM 86.0 °F 88.2 °F 66.2 °F 51% 29.77 in 5.6 mi SSW 8.1 mph - N/A   Unknown
10:00 PM 84.2 °F 87.3 °F 68.0 °F 58% 29.77 in 5.6 mi SSW 6.9 mph - N/A   Unknown